Location: Betpouey
(42.8833°N, 0.0333°E)
Time: 05:48:01
(UTC+00:00)

Meteor 2-13 Rocket - Pass Details

Date: 26 June 2021
Orbit: 935 x 958 km, 82.5° (Epoch: 26 July)

Event Time Altitude Azimuth Distance (km) Brightness Sun altitude
Exits shadow 00:19:52 48° 212° (SSW) 1,241 4.6 -23.6°
Maximum altitude 00:21:38 71° 280° (W) 1,012 4.5 -23.6°
Drops below altitude 10° 00:27:49 10° 4° (N) 2,697 7.9 -23.5°
Sets 00:30:20 0° 7° (N) 3,645 9.0 -23.5°
